Time,TemperatureF,DewpointF,PressureIn,WindDirection,WindDirectionDegrees,WindSpeedMPH,WindSpeedGustMPH,Humidity,HourlyPrecipIn,Conditions,Clouds,dailyrainin,SoftwareType,DateUTC
2013-07-05 00:09:00,75.9,73.4,30.17,SW,225,0.0,0.0,92,0.00,CLR,,0.00,WeatherDisplay:10.37,2013-07-05 04:09:00,
2013-07-05 00:19:00,75.6,73.4,30.17,SW,225,0.0,0.0,93,0.00,CLR,,0.00,WeatherDisplay:10.37,2013-07-05 04:19:00,
2013-07-05 00:29:00,75.4,73.2,30.17,SW,225,0.0,0.0,93,0.00,CLR,,0.00,WeatherDisplay:10.37,2013-07-05 04:29:00,
2013-07-05 00:39:00,75.1,73.3,30.17,SW,225,0.0,0.0,94,0.00,CLR,,0.00,WeatherDisplay:10.37,2013-07-05 04:39:00,
2013-07-05 00:49:00,74.8,73.0,30.17,SW,225,0.0,0.0,94,0.00,CLR,,0.00,WeatherDisplay:10.37,2013-07-05 04:49:00,
2013-07-05 00:59:00,74.6,72.7,30.17,SW,225,0.0,0.0,94,0.00,CLR,,0.00,WeatherDisplay:10.37,2013-07-05 04:59:00,
2013-07-05 01:09:00,74.3,72.8,30.17,SW,225,0.0,0.0,95,0.00,CLR,,0.00,WeatherDisplay:10.37,2013-07-05 05:09:00,
2013-07-05 01:19:00,74.1,72.6,30.17,SW,225,0.0,0.0,95,0.00,CLR,,0.00,WeatherDisplay:10.37,2013-07-05 05:19:00,
2013-07-05 01:29:00,73.9,72.7,30.17,SW,225,0.0,0.0,96,0.00,CLR,,0.00,WeatherDisplay:10.37,2013-07-05 05:29:00,
2013-07-05 01:39:00,73.7,72.5,30.17,SW,225,0.0,0.0,96,0.00,CLR,,0.00,WeatherDisplay:10.37,2013-07-05 05:39:00,
2013-07-05 01:49:00,73.5,72.3,30.17,SW,225,0.0,0.0,96,0.00,CLR,,0.00,WeatherDisplay:10.37,2013-07-05 05:49:00,
2013-07-05 01:59:00,73.3,72.1,30.17,SW,225,0.0,0.0,96,0.00,CLR,,0.00,WeatherDisplay:10.37,2013-07-05 05:59:00,
2013-07-05 02:09:00,73.3,72.4,30.17,SW,225,0.0,0.0,97,0.00,CLR,,0.00,WeatherDisplay:10.37,2013-07-05 06:09:00,
2013-07-05 02:19:00,73.3,72.4,30.17,SW,225,0.0,3.0,97,0.00,CLR,,0.00,WeatherDisplay:10.37,2013-07-05 06:19:00,
2013-07-05 02:29:00,73.5,72.6,30.17,SW,225,0.0,1.0,97,0.00,CLR,,0.00,WeatherDisplay:10.37,2013-07-05 06:29:00,
2013-07-05 02:39:00,73.7,72.8,30.17,SW,225,1.0,3.0,97,0.00,CLR,,0.00,WeatherDisplay:10.37,2013-07-05 06:39:00,
2013-07-05 02:49:00,74.0,72.8,30.17,SW,225,0.0,3.0,96,0.00,CLR,,0.00,WeatherDisplay:10.37,2013-07-05 06:49:00,
2013-07-05 02:59:00,74.0,72.8,30.17,SW,225,0.0,3.0,96,0.00,CLR,,0.00,WeatherDisplay:10.37,2013-07-05 06:59:00,
2013-07-05 03:09:00,74.1,72.9,30.17,SSW,199,0.0,4.0,96,0.00,CLR,,0.00,WeatherDisplay:10.37,2013-07-05 07:09:00,
2013-07-05 03:19:00,74.3,73.1,30.17,South,172,0.0,5.0,96,0.00,CLR,,0.00,WeatherDisplay:10.37,2013-07-05 07:19:00,
2013-07-05 03:29:00,74.5,73.3,30.17,SSW,204,0.0,3.0,96,0.00,CLR,,0.00,WeatherDisplay:10.37,2013-07-05 07:29:00,
2013-07-05 03:39:00,74.5,73.3,30.17,SSW,194,1.0,5.0,96,0.00,CLR,,0.00,WeatherDisplay:10.37,2013-07-05 07:39:00,
2013-07-05 03:49:00,74.6,73.1,30.17,South,182,1.0,4.0,95,0.00,CLR,,0.00,WeatherDisplay:10.37,2013-07-05 07:49:00,
2013-07-05 03:59:00,74.4,72.9,30.17,South,191,0.0,1.0,95,0.00,CLR,,0.00,WeatherDisplay:10.37,2013-07-05 07:59:00,
2013-07-05 04:09:00,74.3,73.1,30.17,West,273,0.0,4.0,96,0.00,CLR,,0.00,WeatherDisplay:10.37,2013-07-05 08:09:00,
2013-07-05 04:19:00,74.2,72.7,30.17,WSW,254,0.0,3.0,95,0.00,CLR,,0.00,WeatherDisplay:10.37,2013-07-05 08:19:00,
2013-07-05 04:29:00,73.9,72.7,30.17,WSW,243,0.0,2.0,96,0.00,CLR,,0.00,WeatherDisplay:10.37,2013-07-05 08:29:00,
2013-07-05 04:39:00,74.1,72.9,30.17,SW,214,0.0,4.0,96,0.00,CLR,,0.00,WeatherDisplay:10.37,2013-07-05 08:39:00,
2013-07-05 04:49:00,74.3,73.1,30.17,SSW,197,0.0,4.0,96,0.00,CLR,,0.00,WeatherDisplay:10.37,2013-07-05 08:49:00,
2013-07-05 04:59:00,74.3,73.1,30.18,SW,235,0.0,3.0,96,0.00,CLR,,0.00,WeatherDisplay:10.37,2013-07-05 08:59:00,
2013-07-05 05:09:00,74.3,73.1,30.17,SSE,155,1.0,2.0,96,0.00,CLR,,0.00,WeatherDisplay:10.37,2013-07-05 09:09:00,
2013-07-05 05:19:00,74.2,73.0,30.17,SSE,168,0.0,4.0,96,0.00,CLR,,0.00,WeatherDisplay:10.37,2013-07-05 09:19:00,
2013-07-05 05:29:00,74.1,72.9,30.17,SSE,167,1.0,4.0,96,0.00,CLR,,0.00,WeatherDisplay:10.37,2013-07-05 09:29:00,
2013-07-05 05:39:00,74.2,73.0,30.18,South,170,0.0,4.0,96,0.00,CLR,,0.00,WeatherDisplay:10.37,2013-07-05 09:39:00,
2013-07-05 05:49:00,74.1,72.9,30.18,South,172,0.0,1.0,96,0.00,CLR,,0.00,WeatherDisplay:10.37,2013-07-05 09:49:00,
2013-07-05 05:59:00,74.1,72.9,30.18,South,172,0.0,2.0,96,0.00,CLR,,0.00,WeatherDisplay:10.37,2013-07-05 09:59:00,
2013-07-05 06:09:00,74.2,73.0,30.18,SSW,209,0.0,5.0,96,0.00,CLR,,0.00,WeatherDisplay:10.37,2013-07-05 10:09:00,
2013-07-05 06:19:00,74.4,73.5,30.19,SW,224,0.0,3.0,97,0.00,CLR,,0.00,WeatherDisplay:10.37,2013-07-05 10:19:00,
2013-07-05 06:29:00,74.5,73.3,30.18,WSW,254,1.0,5.0,96,0.00,CLR,,0.00,WeatherDisplay:10.37,2013-07-05 10:29:00,
2013-07-05 06:49:00,74.9,73.7,30.18,SW,214,0.0,6.0,96,0.00,CLR,,0.00,WeatherDisplay:10.37,2013-07-05 10:49:00,
2013-07-05 06:59:00,75.2,74.0,30.18,SSW,206,2.0,5.0,96,0.00,CLR,,0.00,WeatherDisplay:10.37,2013-07-05 10:59:00,
2013-07-05 07:39:00,76.5,74.6,30.18,SSW,202,1.0,6.0,94,0.00,CLR,,0.00,WeatherDisplay:10.37,2013-07-05 11:39:00,
2013-07-05 07:49:00,76.8,74.6,30.19,SW,214,1.0,5.0,93,0.00,CLR,,0.00,WeatherDisplay:10.37,2013-07-05 11:49:00,
2013-07-05 07:59:00,77.2,75.0,30.19,WSW,243,1.0,8.0,93,0.00,CLR,,0.00,WeatherDisplay:10.37,2013-07-05 11:59:00,
2013-07-05 08:09:00,77.9,75.4,30.19,SW,227,1.0,4.0,92,0.00,FEW,,0.00,WeatherDisplay:10.37,2013-07-05 12:09:00,
2013-07-05 08:29:00,79.3,76.1,30.19,West,267,2.0,9.0,90,0.00,FEW,,0.00,WeatherDisplay:10.37,2013-07-05 12:29:00,
2013-07-05 08:39:00,80.0,76.4,30.19,West,263,2.0,6.0,89,0.00,FEW,,0.00,WeatherDisplay:10.37,2013-07-05 12:39:00,
2013-07-05 08:49:00,80.6,76.7,30.18,West,261,1.0,6.0,88,0.00,FEW,,0.00,WeatherDisplay:10.37,2013-07-05 12:49:00,
2013-07-05 08:59:00,81.1,76.5,30.18,WSW,245,1.0,5.0,86,0.00,FEW,,0.00,WeatherDisplay:10.37,2013-07-05 12:59:00,
2013-07-05 09:19:00,82.4,77.8,30.17,SSW,206,0.0,9.0,86,0.00,FEW,,0.00,WeatherDisplay:10.37,2013-07-05 13:19:00,
2013-07-05 09:29:00,83.1,77.7,30.17,SW,223,0.0,7.0,84,0.00,FEW,,0.00,WeatherDisplay:10.37,2013-07-05 13:29:00,
2013-07-05 09:39:00,83.1,77.0,30.17,SW,228,1.0,7.0,82,0.00,FEW,,0.00,WeatherDisplay:10.37,2013-07-05 13:39:00,
2013-07-05 09:49:00,83.6,77.5,30.17,SW,231,1.0,7.0,82,0.00,FEW,,0.00,WeatherDisplay:10.37,2013-07-05 13:49:00,
2013-07-05 09:59:00,84.0,77.6,30.16,WSW,237,1.0,7.0,81,0.00,FEW,,0.00,WeatherDisplay:10.37,2013-07-05 13:59:00,
2013-07-05 10:29:00,84.6,78.1,30.17,SW,236,1.0,9.0,81,0.00,FEW,,0.00,WeatherDisplay:10.37,2013-07-05 14:29:00,
2013-07-05 10:39:00,85.0,78.1,30.17,SW,221,1.0,6.0,80,0.00,FEW,,0.00,WeatherDisplay:10.37,2013-07-05 14:39:00,
2013-07-05 10:49:00,85.2,77.9,30.16,SSW,204,6.0,9.0,79,0.00,FEW,,0.00,WeatherDisplay:10.37,2013-07-05 14:49:00,
2013-07-05 10:59:00,85.0,78.5,30.16,SSW,195,1.0,8.0,81,0.00,FEW,,0.00,WeatherDisplay:10.37,2013-07-05 14:59:00,
2013-07-05 11:09:00,85.6,78.7,30.16,SSW,212,2.0,9.0,80,0.00,FEW,,0.00,WeatherDisplay:10.37,2013-07-05 15:09:00,
2013-07-05 11:19:00,86.4,78.3,30.16,SSW,197,6.0,8.0,77,0.00,FEW,,0.00,WeatherDisplay:10.37,2013-07-05 15:19:00,
2013-07-05 11:29:00,86.8,78.7,30.16,SW,229,2.0,6.0,77,0.00,FEW,,0.00,WeatherDisplay:10.37,2013-07-05 15:29:00,
2013-07-05 11:39:00,87.0,78.1,30.16,SSW,194,1.0,8.0,75,0.00,FEW,,0.00,WeatherDisplay:10.37,2013-07-05 15:39:00,
2013-07-05 11:49:00,86.9,78.0,30.15,SSW,209,3.0,8.0,75,0.00,FEW,,0.00,WeatherDisplay:10.37,2013-07-05 15:49:00,
2013-07-05 11:59:00,87.1,78.2,30.15,South,184,0.0,10.0,75,0.00,FEW,,0.00,WeatherDisplay:10.37,2013-07-05 15:59:00,
2013-07-05 12:09:00,87.7,78.0,30.15,SSW,208,3.0,8.0,73,0.00,FEW,,0.00,WeatherDisplay:10.37,2013-07-05 16:09:00,
2013-07-05 12:19:00,88.2,78.8,30.15,SW,227,0.0,7.0,74,0.00,FEW,,0.00,WeatherDisplay:10.37,2013-07-05 16:19:00,
2013-07-05 12:29:00,88.3,77.7,30.15,SSW,213,1.0,10.0,71,0.00,FEW,,0.00,WeatherDisplay:10.37,2013-07-05 16:29:00,
2013-07-05 12:39:00,88.5,77.4,30.15,SW,234,2.0,10.0,70,0.00,FEW,,0.00,WeatherDisplay:10.37,2013-07-05 16:39:00,
2013-07-05 12:49:00,88.9,77.8,30.14,WSW,258,5.0,9.0,70,0.00,FEW,,0.00,WeatherDisplay:10.37,2013-07-05 16:49:00,
2013-07-05 12:59:00,88.8,77.3,30.14,SSE,154,3.0,10.0,69,0.00,FEW,,0.00,WeatherDisplay:10.37,2013-07-05 16:59:00,
2013-07-05 13:09:00,89.0,78.4,30.14,West,262,1.0,8.0,71,0.00,SCT,,0.00,WeatherDisplay:10.37,2013-07-05 17:09:00,
2013-07-05 13:19:00,89.6,78.5,30.14,SW,217,1.0,9.0,70,0.00,SCT,,0.00,WeatherDisplay:10.37,2013-07-05 17:19:00,
2013-07-05 13:29:00,90.1,78.5,30.14,SW,223,6.0,10.0,69,0.00,SCT,,0.00,WeatherDisplay:10.37,2013-07-05 17:29:00,
2013-07-05 13:39:00,90.0,78.0,30.13,SSW,209,1.0,12.0,68,0.00,SCT,,0.00,WeatherDisplay:10.37,2013-07-05 17:39:00,
2013-07-05 13:49:00,90.2,77.3,30.13,SW,220,0.0,8.0,66,0.00,SCT,,0.00,WeatherDisplay:10.37,2013-07-05 17:49:00,
2013-07-05 13:59:00,90.3,78.3,30.13,WSW,247,2.0,5.0,68,0.00,SCT,,0.00,WeatherDisplay:10.37,2013-07-05 17:59:00,
2013-07-05 14:09:00,90.7,77.3,30.13,SW,231,3.0,12.0,65,0.00,FEW,,0.00,WeatherDisplay:10.37,2013-07-05 18:09:00,
2013-07-05 14:19:00,90.6,78.2,30.13,SSW,206,1.0,12.0,67,0.00,FEW,,0.00,WeatherDisplay:10.37,2013-07-05 18:19:00,
2013-07-05 14:29:00,91.1,76.7,30.12,SSW,204,5.0,10.0,63,0.00,FEW,,0.00,WeatherDisplay:10.37,2013-07-05 18:29:00,
2013-07-05 14:39:00,90.9,76.6,30.12,SW,230,3.0,12.0,63,0.00,FEW,,0.00,WeatherDisplay:10.37,2013-07-05 18:39:00,
2013-07-05 14:49:00,91.4,76.5,30.12,West,272,2.0,8.0,62,0.00,FEW,,0.00,WeatherDisplay:10.37,2013-07-05 18:49:00,
2013-07-05 14:59:00,91.3,76.9,30.11,WSW,245,1.0,8.0,63,0.00,FEW,,0.00,WeatherDisplay:10.37,2013-07-05 18:59:00,
2013-07-05 15:09:00,91.1,76.7,30.11,SSW,202,5.0,12.0,63,0.00,SCT,,0.00,WeatherDisplay:10.37,2013-07-05 19:09:00,
2013-07-05 15:19:00,91.4,75.6,30.11,SSW,197,5.0,12.0,60,0.00,SCT,,0.00,WeatherDisplay:10.37,2013-07-05 19:19:00,
2013-07-05 15:29:00,91.4,76.1,30.10,South,176,1.0,12.0,61,0.00,SCT,,0.00,WeatherDisplay:10.37,2013-07-05 19:29:00,
2013-07-05 15:39:00,91.8,75.9,30.10,WSW,241,5.0,8.0,60,0.00,SCT,,0.00,WeatherDisplay:10.37,2013-07-05 19:39:00,
2013-07-05 15:49:00,91.9,76.5,30.10,SSW,205,1.0,8.0,61,0.00,SCT,,0.00,WeatherDisplay:10.37,2013-07-05 19:49:00,
2013-07-05 15:59:00,91.8,77.9,30.09,SSW,204,2.0,8.0,64,0.00,SCT,,0.00,WeatherDisplay:10.37,2013-07-05 19:59:00,
2013-07-05 16:09:00,91.1,77.2,30.09,SSW,204,1.0,10.0,64,0.00,SCT,,0.00,WeatherDisplay:10.37,2013-07-05 20:09:00,
2013-07-05 16:19:00,90.6,78.1,30.09,SW,226,1.0,13.0,67,0.00,SCT,,0.00,WeatherDisplay:10.37,2013-07-05 20:19:00,
2013-07-05 16:29:00,91.3,78.3,30.09,WSW,257,1.0,8.0,66,0.00,SCT,,0.00,WeatherDisplay:10.37,2013-07-05 20:29:00,
2013-07-05 16:39:00,91.0,78.1,30.08,SW,225,1.0,9.0,66,0.00,SCT,,0.00,WeatherDisplay:10.37,2013-07-05 20:39:00,
2013-07-05 16:49:00,90.1,77.6,30.08,SSW,199,3.0,6.0,67,0.00,SCT,,0.00,WeatherDisplay:10.37,2013-07-05 20:49:00,
2013-07-05 16:59:00,89.4,79.2,30.08,SSE,168,2.0,7.0,72,0.00,SCT,,0.00,WeatherDisplay:10.37,2013-07-05 20:59:00,
2013-07-05 17:09:00,88.5,78.7,30.08,South,191,1.0,10.0,73,0.00,SCT,,0.00,WeatherDisplay:10.37,2013-07-05 21:09:00,
2013-07-05 17:19:00,87.9,79.0,30.08,South,191,3.0,9.0,75,0.00,SCT,,0.00,WeatherDisplay:10.37,2013-07-05 21:19:00,
2013-07-05 17:29:00,87.9,78.6,30.07,South,177,5.0,9.0,74,0.00,SCT,,0.00,WeatherDisplay:10.37,2013-07-05 21:29:00,
2013-07-05 17:39:00,87.5,78.6,30.07,South,176,3.0,10.0,75,0.00,SCT,,0.00,WeatherDisplay:10.37,2013-07-05 21:39:00,
2013-07-05 17:49:00,87.3,78.4,30.07,SSE,168,2.0,8.0,75,0.00,SCT,,0.00,WeatherDisplay:10.37,2013-07-05 21:49:00,
2013-07-05 17:59:00,87.1,78.6,30.06,SSE,167,2.0,7.0,76,0.00,SCT,,0.00,WeatherDisplay:10.37,2013-07-05 21:59:00,
2013-07-05 18:09:00,87.2,78.3,30.06,South,170,2.0,6.0,75,0.00,SCT,,0.00,WeatherDisplay:10.37,2013-07-05 22:09:00,
2013-07-05 18:19:00,87.3,78.0,30.06,South,176,3.0,8.0,74,0.00,SCT,,0.00,WeatherDisplay:10.37,2013-07-05 22:19:00,
2013-07-05 18:29:00,87.2,78.7,30.06,South,176,0.0,5.0,76,0.00,SCT,,0.00,WeatherDisplay:10.37,2013-07-05 22:29:00,
2013-07-05 18:39:00,87.2,78.3,30.06,SSW,206,1.0,6.0,75,0.00,SCT,,0.00,WeatherDisplay:10.37,2013-07-05 22:39:00,
2013-07-05 18:49:00,87.1,77.0,30.06,SW,219,1.0,3.0,72,0.00,SCT,,0.00,WeatherDisplay:10.37,2013-07-05 22:49:00,
2013-07-05 18:59:00,87.2,77.1,30.06,SSW,212,1.0,4.0,72,0.00,SCT,,0.00,WeatherDisplay:10.37,2013-07-05 22:59:00,
2013-07-05 19:09:00,87.2,76.2,30.06,SSW,207,0.0,5.0,70,0.00,CLR,,0.00,WeatherDisplay:10.37,2013-07-05 23:09:00,
2013-07-05 19:19:00,86.9,77.6,30.06,SW,218,0.0,4.0,74,0.00,CLR,,0.00,WeatherDisplay:10.37,2013-07-05 23:19:00,
2013-07-05 19:29:00,86.1,76.0,30.06,SW,219,0.0,2.0,72,0.00,CLR,,0.00,WeatherDisplay:10.37,2013-07-05 23:29:00,
2013-07-05 19:39:00,85.6,76.4,30.06,SW,221,0.0,2.0,74,0.00,CLR,,0.00,WeatherDisplay:10.37,2013-07-05 23:39:00,
2013-07-05 19:49:00,85.0,75.4,30.06,SW,229,0.0,4.0,73,0.00,CLR,,0.00,WeatherDisplay:10.37,2013-07-05 23:49:00,
2013-07-05 19:59:00,84.5,76.5,30.06,SW,226,0.0,0.0,77,0.00,CLR,,0.00,WeatherDisplay:10.37,2013-07-05 23:59:00,
2013-07-05 20:09:00,83.6,76.0,30.06,SW,226,0.0,0.0,78,0.00,FEW,,0.00,WeatherDisplay:10.37,2013-07-06 00:09:00,
2013-07-05 20:19:00,82.6,75.4,30.06,SW,226,0.0,0.0,79,0.00,FEW,,0.00,WeatherDisplay:10.37,2013-07-06 00:19:00,
2013-07-05 20:29:00,81.7,75.3,30.06,SW,226,0.0,0.0,81,0.00,FEW,,0.00,WeatherDisplay:10.37,2013-07-06 00:29:00,
2013-07-05 20:39:00,80.9,74.9,30.06,SW,226,0.0,0.0,82,0.00,FEW,,0.00,WeatherDisplay:10.37,2013-07-06 00:39:00,
2013-07-05 20:49:00,80.3,74.6,30.06,SW,226,0.0,0.0,83,0.00,FEW,,0.00,WeatherDisplay:10.37,2013-07-06 00:49:00,
2013-07-05 20:59:00,79.7,74.5,30.06,SW,226,0.0,0.0,84,0.00,FEW,,0.00,WeatherDisplay:10.37,2013-07-06 00:59:00,
2013-07-05 21:09:00,79.2,74.3,30.07,SW,226,0.0,0.0,85,0.00,CLR,,0.00,WeatherDisplay:10.37,2013-07-06 01:09:00,
2013-07-05 21:19:00,78.8,74.3,30.07,SW,226,0.0,0.0,86,0.00,CLR,,0.00,WeatherDisplay:10.37,2013-07-06 01:19:00,
2013-07-05 21:29:00,78.7,74.5,30.08,SW,226,0.0,0.0,87,0.00,CLR,,0.00,WeatherDisplay:10.37,2013-07-06 01:29:00,
2013-07-05 21:39:00,78.3,74.1,30.08,SW,226,0.0,0.0,87,0.00,CLR,,0.00,WeatherDisplay:10.37,2013-07-06 01:39:00,
2013-07-05 21:49:00,78.0,73.8,30.09,SW,226,0.0,0.0,87,0.00,CLR,,0.00,WeatherDisplay:10.37,2013-07-06 01:49:00,
2013-07-05 21:59:00,77.8,74.0,30.09,SW,226,0.0,0.0,88,0.00,CLR,,0.00,WeatherDisplay:10.37,2013-07-06 01:59:00,
2013-07-05 22:09:00,77.6,73.8,30.09,SW,226,0.0,1.0,88,0.00,CLR,,0.00,WeatherDisplay:10.37,2013-07-06 02:09:00,
2013-07-05 22:19:00,77.4,73.9,30.09,SW,226,0.0,1.0,89,0.00,CLR,,0.00,WeatherDisplay:10.37,2013-07-06 02:19:00,
2013-07-05 22:29:00,77.3,73.5,30.09,SW,226,0.0,0.0,88,0.00,CLR,,0.00,WeatherDisplay:10.37,2013-07-06 02:29:00,
2013-07-05 22:39:00,77.2,73.7,30.09,SW,226,0.0,1.0,89,0.00,CLR,,0.00,WeatherDisplay:10.37,2013-07-06 02:39:00,
2013-07-05 22:49:00,77.2,73.4,30.10,South,190,0.0,3.0,88,0.00,CLR,,0.00,WeatherDisplay:10.37,2013-07-06 02:49:00,
2013-07-05 22:59:00,77.1,73.6,30.10,South,190,0.0,0.0,89,0.00,CLR,,0.00,WeatherDisplay:10.37,2013-07-06 02:59:00,
2013-07-05 23:09:00,77.0,73.5,30.10,South,179,0.0,2.0,89,0.00,CLR,,0.00,WeatherDisplay:10.37,2013-07-06 03:09:00,
2013-07-05 23:19:00,77.1,73.6,30.10,SSW,203,0.0,3.0,89,0.00,CLR,,0.00,WeatherDisplay:10.37,2013-07-06 03:19:00,
2013-07-05 23:29:00,77.4,73.6,30.10,North,354,1.0,6.0,88,0.00,CLR,,0.00,WeatherDisplay:10.37,2013-07-06 03:29:00,
2013-07-05 23:39:00,77.9,73.7,30.10,NW,315,0.0,1.0,87,0.00,CLR,,0.00,WeatherDisplay:10.37,2013-07-06 03:39:00,
2013-07-05 23:49:00,78.4,74.2,30.11,SW,224,0.0,5.0,87,0.00,CLR,,0.00,WeatherDisplay:10.37,2013-07-06 03:49:00,
2013-07-05 23:59:00,78.8,74.2,30.10,NW,309,0.0,3.0,86,0.00,CLR,,0.00,WeatherDisplay:10.37,2013-07-06 03:59:00,